Waukesha, WI

9:27 AM CDT on April 23, 2017 (GMT -0500)
Waukesha County

Weather History for KUES - December, 2012

Change the Weather History Date:

Tuesday, December 4, 2012

  Actual Average Record
Temperature  
Mean Temperature 40 °F -  
Max Temperature 51 °F 36 °F 60 °F (2001)
Min Temperature 28 °F 21 °F 4 °F (1976)
Degree Days  
Heating Degree Days 26    
Moisture  
Dew Point 29 °F    
Average Humidity 67    
Maximum Humidity 93    
Minimum Humidity 44    
Precipitation  
Precipitation 0.00 in - - ()
Sea Level Pressure  
Sea Level Pressure 30.09 in    
Wind  
Wind Speed 10 mph (WNW)    
Max Wind Speed 22 mph    
Max Gust Speed 31 mph    
Visibility 10 miles    
Events      
Averages and records for this station are not official NWS values.
T = Trace of Precipitation, MM = Missing Value Source: NWS Daily Summary

Daily Weather History Graph

Daily Weather History Graph

Search for Another Location

Airport or City:

Trip Planner

Search our weather history database for the weather conditions in past years. The results will help you decide how hot, cold, wet, or windy it might be!

Date:

Astronomy

Dec. 04, 2012 Rise Set
Actual Time 7:08 AM CST 4:18 PM CST
Civil Twilight 6:36 AM CST 4:50 PM CST
Nautical Twilight 6:00 AM CST 5:25 PM CST
Astronomical Twilight 5:26 AM CST 6:00 PM CST
Moon 10:11 PM CST (12/4) 10:57 AM CST (12/4)
Length of Visible Light 10h 14m
Length of Day
9h 10m
Waning Gibbous, 69% of the Moon is Illuminated
Dec 4
Waning Gibbous
Dec 6
Last Quarter
Dec 13
New
Dec 19
First Quarter
Dec 28
Full

Hourly Weather History & Observations

Time (CST) Temp. Windchill Dew Point Humidity Pressure Visibility Wind Dir Wind Speed Gust Speed Precip Events Conditions
12:15 AM 46.4 °F 42.4 °F 41.0 °F 81% 29.91 in 10.0 mi WNW 8.1 mph 17.3 mph N/A   Clear
12:35 AM 46.4 °F 41.5 °F 41.0 °F 81% 29.93 in 10.0 mi WNW 10.4 mph 17.3 mph N/A   Clear
12:55 AM 44.6 °F 40.2 °F 41.0 °F 87% 29.93 in 10.0 mi WNW 8.1 mph - N/A   Clear
1:15 AM 44.6 °F 39.2 °F 37.4 °F 76% 29.94 in 10.0 mi WNW 10.4 mph 16.1 mph N/A   Clear
1:35 AM 44.6 °F 41.4 °F 37.4 °F 76% 29.95 in 10.0 mi NW 5.8 mph - N/A   Clear
1:55 AM 44.6 °F 40.2 °F 37.4 °F 76% 29.96 in 10.0 mi NW 8.1 mph - N/A   Clear
2:15 AM 42.8 °F 38.6 °F 37.4 °F 81% 29.97 in 10.0 mi NW 6.9 mph - N/A   Clear
2:35 AM 42.8 °F 39.3 °F 35.6 °F 76% 29.97 in 10.0 mi WNW 5.8 mph - N/A   Clear
2:55 AM 42.8 °F 40.1 °F 35.6 °F 76% 29.97 in 10.0 mi West 4.6 mph - N/A   Clear
3:15 AM 41.0 °F 38.0 °F 35.6 °F 81% 29.97 in 10.0 mi West 4.6 mph - N/A   Clear
3:35 AM 41.0 °F 38.0 °F 35.6 °F 81% 29.96 in 10.0 mi West 4.6 mph - N/A   Clear
3:55 AM 41.0 °F 37.1 °F 35.6 °F 81% 29.97 in 10.0 mi West 5.8 mph - N/A   Clear
4:15 AM 41.0 °F 36.4 °F 35.6 °F 81% 29.98 in 10.0 mi WSW 6.9 mph - N/A   Clear
4:35 AM 41.0 °F 37.1 °F 33.8 °F 76% 29.99 in 10.0 mi SW 5.8 mph - N/A   Clear
5:45 AM 41.0 °F 37.1 °F 35.6 °F 81% 30.02 in 10.0 mi WSW 5.8 mph - N/A   Clear
6:45 AM 42.8 °F 36.6 °F 32.0 °F 66% 30.03 in 10.0 mi West 11.5 mph - N/A   Overcast
7:45 AM 42.8 °F 34.8 °F 32.0 °F 66% 30.04 in 10.0 mi West 17.3 mph - N/A   Mostly Cloudy
8:45 AM 42.8 °F 36.6 °F 32.0 °F 66% 30.06 in 10.0 mi West 11.5 mph - N/A   Scattered Clouds
9:45 AM 44.6 °F 38.8 °F 42.8 °F 93% 30.06 in 10.0 mi West 11.5 mph 23.0 mph N/A   Scattered Clouds
10:45 AM 46.4 °F 40.4 °F 32.0 °F 57% 30.06 in 10.0 mi West 13.8 mph 23.0 mph N/A   Scattered Clouds
12:45 PM 51.8 °F - 33.8 °F 50% 30.03 in 10.0 mi West 15.0 mph 26.5 mph N/A   Scattered Clouds
1:45 PM 51.8 °F - 32.0 °F 47% 30.03 in 10.0 mi West 21.9 mph 31.1 mph N/A   Scattered Clouds
2:45 PM 51.8 °F - 30.2 °F 44% 30.04 in 10.0 mi West 19.6 mph 28.8 mph N/A   Clear
3:45 PM 50.0 °F - 30.2 °F 47% 30.07 in 10.0 mi West 12.7 mph - N/A   Clear
4:45 PM 46.4 °F 40.1 °F 28.4 °F 50% 30.10 in 10.0 mi West 15.0 mph - N/A   Clear
5:45 PM 44.6 °F 37.8 °F 28.4 °F 53% 30.12 in 10.0 mi WNW 15.0 mph - N/A   Clear
6:45 PM 41.0 °F 33.5 °F 24.8 °F 53% 30.15 in 10.0 mi WNW 13.8 mph - N/A   Clear
7:45 PM 37.4 °F 27.2 °F 24.8 °F 60% 30.18 in 10.0 mi NW 19.6 mph - N/A   Clear
8:15 PM 33.8 °F 23.2 °F 23.0 °F 65% 30.20 in 10.0 mi NNW 17.3 mph - N/A   Clear
8:35 PM 32.0 °F 20.5 °F 21.2 °F 64% 30.21 in 10.0 mi NW 18.4 mph 23.0 mph N/A   Clear
8:45 PM 33.8 °F 24.3 °F 19.4 °F 56% 30.22 in 10.0 mi NW 13.8 mph - N/A   Clear
8:55 PM 32.0 °F 23.0 °F 21.2 °F 64% 30.23 in 10.0 mi NW 11.5 mph - N/A   Clear
9:15 PM 32.0 °F 22.1 °F 21.2 °F 64% 30.23 in 10.0 mi NNW 13.8 mph 18.4 mph N/A   Clear
9:35 PM 32.0 °F 22.5 °F 21.2 °F 64% 30.24 in 10.0 mi NNW 12.7 mph 18.4 mph N/A   Clear
9:55 PM 30.2 °F 20.8 °F 21.2 °F 69% 30.25 in 10.0 mi NW 11.5 mph - N/A   Clear
10:15 PM 30.2 °F 19.8 °F 19.4 °F 64% 30.27 in 10.0 mi NW 13.8 mph 20.7 mph N/A   Clear
10:35 PM 28.4 °F 19.1 °F 17.6 °F 64% 30.27 in 10.0 mi NW 10.4 mph - N/A   Clear
10:55 PM 28.4 °F 18.0 °F 14.0 °F 55% 30.27 in 10.0 mi NW 12.7 mph 16.1 mph N/A   Clear
11:15 PM 28.4 °F 19.7 °F 14.0 °F 55% 30.28 in 10.0 mi NNW 9.2 mph 16.1 mph N/A   Clear
11:35 PM 28.4 °F 19.1 °F 14.0 °F 55% 30.30 in 10.0 mi NW 10.4 mph - N/A   Clear
11:55 PM 28.4 °F 19.1 °F 14.0 °F 55% 30.31 in 10.0 mi NW 10.4 mph - N/A   Clear